TimeCST,TemperatureF,Dew PointF,Humidity,Sea Level PressureIn,VisibilityMPH,Wind Direction,Wind SpeedMPH,Gust SpeedMPH,PrecipitationIn,Events,Conditions,WindDirDegrees,DateUTC
12:15 AM,21.2,19.4,93,30.32,10.0,West,8.1,-,N/A,,Clear,280,2013-02-15 06:15:00
12:35 AM,19.4,19.4,100,30.32,10.0,West,9.2,-,N/A,,Clear,280,2013-02-15 06:35:00
12:55 AM,19.4,19.4,100,30.33,10.0,West,9.2,-,N/A,,Clear,280,2013-02-15 06:55:00
1:15 AM,21.2,19.4,93,30.32,10.0,WNW,9.2,-,N/A,,Clear,290,2013-02-15 07:15:00
1:35 AM,21.2,19.4,93,30.32,10.0,WNW,9.2,-,N/A,,Clear,300,2013-02-15 07:35:00
1:55 AM,19.4,17.6,93,30.32,10.0,WNW,8.1,-,N/A,,Clear,300,2013-02-15 07:55:00
2:55 AM,17.6,17.6,100,30.32,10.0,West,6.9,-,N/A,,Clear,270,2013-02-15 08:55:00
3:15 AM,17.6,17.6,100,30.31,10.0,West,9.2,-,N/A,,Clear,280,2013-02-15 09:15:00
3:35 AM,17.6,17.6,100,30.31,10.0,WNW,9.2,-,N/A,,Clear,290,2013-02-15 09:35:00
3:55 AM,17.6,17.6,100,30.30,10.0,WNW,6.9,-,N/A,,Clear,290,2013-02-15 09:55:00
4:15 AM,17.6,17.6,100,30.31,10.0,West,9.2,-,N/A,,Clear,280,2013-02-15 10:15:00
4:55 AM,17.6,15.8,93,30.31,10.0,West,4.6,-,N/A,,Clear,260,2013-02-15 10:55:00
5:15 AM,15.8,14.0,93,30.31,10.0,West,5.8,-,N/A,,Clear,270,2013-02-15 11:15:00
5:35 AM,15.8,14.0,93,30.32,10.0,West,6.9,-,N/A,,Scattered Clouds,270,2013-02-15 11:35:00
5:55 AM,15.8,14.0,93,30.32,10.0,West,9.2,-,N/A,,Mostly Cloudy,270,2013-02-15 11:55:00
6:15 AM,17.6,14.0,86,30.32,10.0,West,6.9,-,N/A,,Scattered Clouds,280,2013-02-15 12:15:00
6:35 AM,17.6,14.0,86,30.32,10.0,West,9.2,-,N/A,,Scattered Clouds,280,2013-02-15 12:35:00
6:55 AM,17.6,17.6,100,30.32,10.0,WNW,8.1,-,N/A,,Overcast,290,2013-02-15 12:55:00
7:15 AM,19.4,17.6,93,30.33,10.0,West,9.2,-,N/A,,Mostly Cloudy,280,2013-02-15 13:15:00
7:35 AM,19.4,17.6,93,30.34,10.0,WNW,8.1,-,N/A,,Mostly Cloudy,290,2013-02-15 13:35:00
7:55 AM,19.4,19.4,100,30.33,10.0,WNW,8.1,-,N/A,,Overcast,300,2013-02-15 13:55:00
8:15 AM,21.2,19.4,93,30.32,10.0,NW,6.9,-,N/A,,Overcast,320,2013-02-15 14:15:00
8:35 AM,21.2,21.2,100,30.33,10.0,WNW,5.8,-,N/A,,Overcast,300,2013-02-15 14:35:00
8:55 AM,23.0,21.2,93,30.34,10.0,West,6.9,-,N/A,,Overcast,260,2013-02-15 14:55:00
9:15 AM,24.8,23.0,93,30.34,10.0,WNW,6.9,-,N/A,,Overcast,290,2013-02-15 15:15:00
9:35 AM,26.6,23.0,86,30.34,10.0,West,9.2,-,N/A,,Overcast,280,2013-02-15 15:35:00
9:55 AM,28.4,24.8,86,30.33,10.0,WNW,9.2,-,N/A,,Overcast,290,2013-02-15 15:55:00
10:15 AM,28.4,26.6,93,30.33,10.0,WNW,9.2,-,N/A,,Overcast,300,2013-02-15 16:15:00
10:35 AM,28.4,26.6,93,30.33,10.0,WNW,8.1,-,N/A,,Overcast,300,2013-02-15 16:35:00
10:55 AM,30.2,26.6,86,30.32,10.0,West,8.1,-,N/A,,Overcast,280,2013-02-15 16:55:00
11:15 AM,30.2,26.6,86,30.33,10.0,WNW,10.4,-,N/A,,Overcast,290,2013-02-15 17:15:00
11:35 AM,32.0,24.8,75,30.32,10.0,West,12.7,-,N/A,,Overcast,280,2013-02-15 17:35:00
11:55 AM,32.0,23.0,69,30.32,10.0,WNW,11.5,-,N/A,,Overcast,300,2013-02-15 17:55:00
12:15 PM,32.0,23.0,69,30.31,10.0,NW,11.5,-,N/A,,Overcast,310,2013-02-15 18:15:00
12:55 PM,33.8,23.0,65,30.30,10.0,WNW,12.7,-,N/A,,Overcast,300,2013-02-15 18:55:00
1:15 PM,33.8,23.0,65,30.29,10.0,NW,11.5,18.4,N/A,,Overcast,320,2013-02-15 19:15:00
1:35 PM,33.8,23.0,65,30.29,10.0,WNW,9.2,18.4,N/A,,Overcast,300,2013-02-15 19:35:00
1:55 PM,33.8,23.0,65,30.27,10.0,NNW,12.7,-,N/A,,Overcast,330,2013-02-15 19:55:00
2:15 PM,35.6,23.0,60,30.27,10.0,NW,8.1,-,N/A,,Overcast,310,2013-02-15 20:15:00
2:35 PM,35.6,23.0,60,30.26,10.0,NW,15.0,-,N/A,,Overcast,320,2013-02-15 20:35:00
2:55 PM,35.6,23.0,60,30.26,10.0,NW,13.8,-,N/A,,Overcast,320,2013-02-15 20:55:00
3:15 PM,35.6,24.8,65,30.26,10.0,NNW,16.1,-,N/A,,Overcast,330,2013-02-15 21:15:00
3:35 PM,35.6,24.8,65,30.26,10.0,NNW,13.8,-,N/A,,Overcast,330,2013-02-15 21:35:00
3:55 PM,35.6,24.8,65,30.27,10.0,NNW,17.3,23.0,N/A,,Overcast,330,2013-02-15 21:55:00
4:15 PM,33.8,26.6,75,30.27,4.0,NNW,18.4,21.9,N/A,Snow,Light Snow,330,2013-02-15 22:15:00
4:35 PM,35.6,23.0,60,30.28,10.0,North,15.0,23.0,N/A,,Mostly Cloudy,350,2013-02-15 22:35:00
4:55 PM,33.8,23.0,65,30.29,10.0,North,15.0,-,N/A,,Overcast,350,2013-02-15 22:55:00
5:15 PM,33.8,21.2,60,30.29,10.0,North,11.5,-,N/A,,Mostly Cloudy,350,2013-02-15 23:15:00
5:35 PM,32.0,21.2,64,30.29,10.0,NNW,11.5,17.3,N/A,,Mostly Cloudy,340,2013-02-15 23:35:00
5:55 PM,32.0,21.2,64,30.30,10.0,North,12.7,-,N/A,,Overcast,350,2013-02-15 23:55:00
6:15 PM,32.0,21.2,64,30.31,10.0,North,12.7,-,N/A,,Overcast,360,2013-02-16 00:15:00
6:35 PM,32.0,21.2,64,30.32,10.0,North,11.5,-,N/A,,Overcast,350,2013-02-16 00:35:00
6:55 PM,30.2,21.2,69,30.32,10.0,North,10.4,-,N/A,,Overcast,350,2013-02-16 00:55:00
7:15 PM,30.2,19.4,64,30.32,10.0,North,9.2,-,N/A,,Scattered Clouds,350,2013-02-16 01:15:00
7:35 PM,28.4,19.4,69,30.32,10.0,North,8.1,-,N/A,,Clear,360,2013-02-16 01:35:00
7:55 PM,26.6,19.4,74,30.33,10.0,North,6.9,-,N/A,,Clear,350,2013-02-16 01:55:00
8:15 PM,26.6,19.4,74,30.34,10.0,North,5.8,-,N/A,,Clear,350,2013-02-16 02:15:00
8:35 PM,23.0,19.4,86,30.33,10.0,NNW,5.8,-,N/A,,Clear,340,2013-02-16 02:35:00
8:55 PM,21.2,17.6,86,30.34,10.0,NW,6.9,-,N/A,,Clear,320,2013-02-16 02:55:00
9:15 PM,21.2,17.6,86,30.34,10.0,West,8.1,-,N/A,,Clear,280,2013-02-16 03:15:00
9:35 PM,19.4,17.6,93,30.34,10.0,West,9.2,-,N/A,,Clear,280,2013-02-16 03:35:00
9:55 PM,19.4,17.6,93,30.35,10.0,West,9.2,-,N/A,,Clear,270,2013-02-16 03:55:00
10:15 PM,19.4,17.6,93,30.35,10.0,West,8.1,-,N/A,,Clear,280,2013-02-16 04:15:00
10:35 PM,19.4,17.6,93,30.34,10.0,West,6.9,-,N/A,,Mostly Cloudy,270,2013-02-16 04:35:00
10:55 PM,19.4,17.6,93,30.34,10.0,West,8.1,-,N/A,,Mostly Cloudy,270,2013-02-16 04:55:00
11:15 PM,19.4,17.6,93,30.32,10.0,West,6.9,-,N/A,,Mostly Cloudy,280,2013-02-16 05:15:00
11:35 PM,21.2,19.4,93,30.31,10.0,West,4.6,-,N/A,,Overcast,270,2013-02-16 05:35:00
11:55 PM,21.2,19.4,93,30.29,10.0,NNW,3.5,-,N/A,,Overcast,330,2013-02-16 05:55:00